Regional Weather Roundup
Issued by NWS Newport/Morehead, NC

Current Version | Previous Version | Text Only | Print | Product List | Glossary Off
Versions: 1 2 3 4 5 6 7 8 9 10 11 12 13 14 15 16 17 18 19 20 21 22 23 24 25 26 27 28 29 30 31 32 33 34 35 36 37 38 39 40 41 42 43 44 45 46 47 48 49 50
000 ASUS42 KMHX 211922 RWRMHX WEATHER ROUNDUP FOR EASTERN NORTH CAROLINA NATIONAL WEATHER SERVICE NEWPORT/MOREHEAD CITY NC 200 PM EST SUN DEC 21 2014 NOTE: "FAIR" INDICATES FEW OR NO CLOUDS BELOW 12,000 FEET WITH NO SIGNIFICANT WEATHER AND/OR OBSTRUCTIONS TO VISIBILITY NCZ015>017-031-032-045>047-102-103-212000- NORTH COAST CITY SKY/WX TMP DP RH WIND PRES REMARKS EDENTON SUNNY 49 33 55 NE8 30.27F ELIZABETH CITY SUNNY 51 34 52 NE10 30.28F KITTY HAWK PTCLDY 47 37 68 NE8 30.25F MANTEO PTSUNNY 47 37 68 NE10 30.26F $$ NCZ045>047-081-094-103-104-212000- CENTRAL COAST CITY SKY/WX TMP DP RH WIND PRES REMARKS FRISCO CLOUDY 47 40 76 NE10G17 30.24F SWANQUARTER N/A 48 N/A N/A N6G13 30.21S $$ NCZ095-097-098-100-101-212000- SOUTHERN COAST CITY SKY/WX TMP DP RH WIND PRES REMARKS BEAUFORT CLOUDY 46 38 73 NE12 30.23F CEDAR ISLAND N/A 46 N/A N/A NE10G18 30.27F JACKSONVILLE CLOUDY 47 35 63 N12 30.23F PINEY ISLAND CLOUDY 49 37 63 N12 30.24F WILMINGTON CLOUDY 49 37 63 NE12 30.21F $$ NCZ011>013-027>030-043-044-078>080-089-090>093-098-212000- COASTAL PLAIN CITY SKY/WX TMP DP RH WIND PRES REMARKS AHOSKIE SUNNY 45 29 52 E6 30.28F CLINTON MOSUNNY 50 38 65 NE5 30.24F ELIZABETHTOWN PTSUNNY 50 38 61 E6 30.21F GOLDSBORO NOT AVBL GREENVILLE SUNNY 46 32 57 NE8 30.26F HAVELOCK PTSUNNY 47 35 63 NE12 30.25F KENANSVILLE CLOUDY 48 36 63 NE6 30.24F KINSTON PTSUNNY 46 34 61 NE8 30.26F NEW BERN CLOUDY 49 36 61 NE9 30.25F RICHLANDS CLOUDY 46 34 61 N9 30.23F ROCKY MOUNT SUNNY 49 32 52 VRB3 30.26F WASHINGTON CLOUDY 47 32 56 NE8 30.25F WHITEVILLE PTSUNNY 53 38 56 NE10 30.19F $$ AMZ130-135-150-152-154-156-158-170-250-252-270-ANZ085-086-088-633-658-670-212000- MARINE OBSERVATIONS STATION/POSITION TIME TEMP WIND PRES WAVE SWELL AIR SEA DIR/SP/G HT/PER HT/PER (UTC) (F) (DEG/KT/KT) (MB) (FT/S) (FT/S) CHESAPEAKE LIGHT 1900 40 20/ 12/ 14 1026.2 64 E VA BEACH 1900 45 54 10/ 12/ 14 1025.0 2/ 4 2/11 DUCK 1900 44 46 30/ 13/ 15 1024.2 2 E DUCK 1900 47 N/A 2/ 4 10 NE DUCK 1900 51 N/A 2/ 3 OREGON INLET 1900 47 47 20/ 12/ 16 1024.2 13E OREGON INLT 1900 53 N/A 3/ 4 HATTERAS CG 1900 46 50 20/ 13/ 18 1024.2 DIAMOND BUOY 1900 53 1023.5 3/ 4 17 S OCRACOKE NOT AVBL CAPE LOOKOUT 1900 45 20/ 16/ 20 1023.2 BEAUFORT LAB 1900 45 51 20/ 9/ 12 1022.3 30 SE NEW RIVER 1900 50 60 40/ 23/ 25 1022.5 5/ 5 5 SE WRIGHTSVLE NOT AVBL 225 S CAPE HAT 1756 70 71 140/ 17/ 23 1017.8 7/ 6 2/10 41 SE CHARLESTON 1900 60 69 30/ 21/ 23 1019.4 6/ 6 3/ 7 $$

USA.gov is the U.S. government's official web portal to all federal, state and local government web resources and services.